Theta_e
328 325 325 326 325 320 312 308 293 298 298 292 290 291 290 296 296 295 297 299 297 301 303 302 301 303 301 299 299 300 301 300 298 291 291 303 320 323 324 329 335 339 338 340 343 345 346 347 351 352 353 353 353 352 351 350 349 349 349 349 350 350 349 350 349 349 349 349 349 349 349 349 348 348 348 348 348 348 348 348 348 347 347 347 347 347 348 347 347 345 342 341 340 339 338 337 336
324 320 321 321 317 310 301 304 294 290 291 289 290 290 293 295 295 295 296 298 299 301 301 301 301 303 303 302 299 302 300 303 301 302 313 323 322 326 328 329 335 338 338 340 342 345 345 346 349 351 353 352 352 351 351 350 350 349 349 350 350 350 349 349 349 349 350 349 349 349 349 348 349 348 348 347 348 348 347 347 347 347 347 346 346 346 347 346 345 344 342 339 338 336 336 335 334
323 321 322 318 315 311 306 302 293 290 288 285 288 292 295 292 294 296 298 299 301 302 301 301 302 303 304 302 301 299 297 304 305 312 317 323 318 320 328 328 332 339 339 340 342 344 344 345 346 351 353 353 352 352 351 350 350 349 349 349 350 350 349 349 349 349 349 349 348 348 348 348 348 347 347 347 347 346 347 347 347 346 346 346 346 346 346 345 343 341 340 338 336 335 334 333 332
324 322 321 311 305 307 300 296 292 292 290 288 288 292 294 294 296 298 299 300 300 300 303 303 302 304 302 298 301 304 300 304 306 313 313 316 316 317 328 328 328 338 340 341 342 343 344 344 346 351 352 353 352 351 351 350 350 349 349 349 349 349 349 349 349 349 349 349 349 349 349 348 348 347 346 345 345 345 344 345 346 346 345 345 344 344 344 342 341 340 338 337 335 334 333 333 332
321 323 321 311 306 300 301 297 294 290 288 287 289 293 295 296 298 300 300 300 299 300 302 303 300 304 304 304 303 300 299 308 307 314 318 319 323 328 328 327 327 337 339 340 341 342 343 343 345 349 352 352 352 352 351 351 350 349 349 349 349 349 349 349 349 349 349 349 349 349 348 348 348 346 345 344 344 344 343 343 342 341 340 342 342 342 341 340 339 338 337 335 334 333 332 332 331
320 318 319 311 303 305 299 292 289 289 292 292 290 292 294 297 298 299 299 300 302 300 301 301 301 302 302 303 304 301 305 304 308 316 320 319 325 330 328 326 326 334 339 340 341 342 342 342 344 349 352 352 352 352 352 351 350 349 350 349 349 349 349 349 349 349 349 349 349 349 348 348 347 346 344 343 342 343 342 339 342 339 338 340 341 339 337 338 337 336 336 334 333 332 331 330 329
315 312 311 306 305 302 294 290 289 290 293 295 293 294 296 297 299 298 298 301 302 302 302 303 302 301 299 303 305 306 311 313 309 316 320 322 325 329 329 325 324 330 338 339 340 341 341 342 346 349 350 351 351 352 351 351 350 349 350 350 349 348 349 349 349 349 349 349 349 349 348 348 347 345 343 342 341 340 339 338 338 338 337 336 338 339 336 335 334 334 332 332 331 330 329 328 327
317 308 308 297 297 295 293 289 291 291 293 296 296 296 298 298 298 299 298 299 299 300 302 302 302 300 298 303 300 303 315 322 317 320 322 324 326 328 327 324 320 329 334 337 339 339 339 341 345 348 350 351 350 351 351 351 350 350 350 350 349 349 349 348 349 348 348 349 349 348 348 347 346 344 343 342 341 339 338 338 336 336 336 335 335 336 337 334 332 332 332 331 329 327 326 326 325
313 309 306 296 294 295 292 293 293 295 295 296 297 301 305 299 300 299 299 299 299 301 301 302 300 297 297 300 299 303 312 319 321 323 323 324 326 327 327 322 319 326 332 333 339 339 340 340 343 348 348 350 350 351 351 351 350 350 350 350 349 349 348 348 349 350 349 349 349 348 348 346 345 344 342 341 340 339 338 337 336 335 336 336 334 333 333 332 332 332 331 329 327 326 324 324 324
308 303 297 298 296 292 289 290 292 292 295 296 296 299 300 300 299 300 300 299 300 301 300 302 300 299 299 299 299 302 310 314 317 319 322 325 327 326 325 321 320 326 331 331 338 339 339 337 341 344 346 349 350 351 351 351 350 350 350 349 349 349 349 349 349 350 349 349 348 348 347 346 344 343 341 341 340 339 338 337 336 336 335 333 332 332 332 331 330 330 329 328 326 324 323 322 323
302 304 302 292 289 289 289 289 289 292 293 295 298 300 300 299 300 300 299 299 299 300 301 302 301 298 300 299 299 306 314 313 313 315 318 323 326 325 325 324 321 328 330 331 336 338 338 339 337 341 343 345 347 349 350 349 350 350 349 349 349 349 349 349 349 349 349 349 348 347 346 346 345 343 341 341 339 338 337 336 336 334 332 332 331 331 331 330 329 328 328 327 325 323 322 322 322
300 301 299 293 290 290 288 290 292 293 295 294 298 300 299 301 299 299 298 298 298 297 298 301 300 301 298 299 299 308 312 311 311 312 315 322 324 324 324 324 324 326 330 332 336 336 337 338 338 338 340 342 343 345 347 347 348 349 349 349 349 349 348 349 349 348 348 348 348 347 347 346 346 343 341 340 339 337 337 335 333 332 332 332 331 331 330 330 329 328 327 325 323 322 322 321 319
302 299 293 292 289 292 290 290 291 294 291 293 297 300 299 299 299 299 298 297 295 296 300 302 304 301 297 299 301 308 308 313 316 314 317 317 320 320 322 324 325 326 329 333 336 335 336 337 338 339 338 337 338 339 341 343 345 346 347 348 348 347 347 348 348 347 347 347 347 346 346 344 343 342 342 339 338 336 335 334 333 333 332 332 331 330 329 329 328 327 326 324 323 322 321 320 319
304 304 296 292 290 291 291 290 290 293 288 294 296 299 300 298 298 299 297 297 295 298 302 303 304 301 297 299 296 302 304 310 314 315 314 315 317 321 322 323 324 325 327 332 335 335 336 336 337 338 338 339 340 337 335 338 341 344 345 345 344 345 345 346 346 345 345 345 343 341 340 339 340 341 341 338 337 336 335 334 334 333 332 332 331 331 329 328 328 327 325 323 323 322 321 320 318
303 303 296 293 289 289 290 293 291 290 292 293 298 299 299 300 299 298 300 297 297 300 304 305 303 299 293 297 293 303 306 310 313 314 317 319 320 321 320 322 324 323 325 328 333 335 336 336 337 336 336 338 339 339 339 338 336 339 341 341 341 343 343 343 342 342 341 339 338 336 334 333 334 334 334 334 335 333 332 330 333 334 332 331 331 330 329 328 327 326 325 323 323 322 320 318 317
305 301 295 292 289 290 292 292 293 292 291 295 298 298 298 299 299 299 299 300 299 302 303 299 305 300 298 299 300 301 305 311 312 315 316 316 316 320 319 321 322 323 322 324 328 332 335 335 335 336 336 338 339 340 340 338 334 333 337 339 339 340 340 339 339 338 334 331 330 328 326 326 327 328 326 329 329 331 328 324 329 333 332 331 330 330 328 327 326 325 324 324 323 321 319 316 314
304 298 292 289 289 291 291 293 293 290 293 292 297 299 297 296 298 302 303 303 301 300 299 300 301 304 301 303 305 303 310 312 315 314 314 314 313 316 317 317 320 321 324 322 324 327 331 334 335 335 336 337 339 341 342 340 337 332 334 333 334 335 336 335 335 331 325 324 323 321 320 323 321 323 324 324 322 324 320 322 327 332 332 333 331 329 328 327 326 325 324 324 322 320 315 313 312
300 295 289 289 290 292 293 295 297 296 294 294 296 297 296 294 296 299 301 301 299 299 299 300 301 302 303 305 306 307 310 312 313 313 311 310 310 311 312 314 314 321 322 322 324 326 328 331 334 335 335 336 338 341 342 342 339 334 339 338 335 334 331 328 330 330 324 324 321 321 321 320 321 321 321 322 321 321 321 321 323 328 331 332 330 330 328 327 325 324 324 323 321 317 312 298 301
297 294 292 289 290 294 296 298 296 295 295 297 297 295 296 297 297 298 297 295 296 297 298 299 299 299 300 301 301 307 311 310 312 311 312 310 311 311 313 314 316 314 318 321 323 325 327 328 331 334 335 336 337 339 341 341 340 337 338 337 336 332 331 330 329 326 324 323 321 321 320 320 321 320 320 320 320 319 320 320 322 325 328 329 328 329 329 326 325 324 324 322 318 313 301 295 294
299 296 290 291 294 295 299 298 297 297 297 297 296 297 297 297 297 300 297 295 295 295 296 297 298 299 299 301 304 306 308 309 310 310 310 310 311 311 311 312 314 316 319 322 324 326 325 326 328 332 334 335 336 337 339 340 340 337 337 337 336 335 334 331 330 327 325 323 322 321 321 321 320 320 320 318 320 319 319 318 320 321 323 324 322 323 326 326 324 324 323 321 315 304 296 295 294
300 296 292 293 296 296 297 297 299 298 299 298 297 296 297 298 298 299 297 295 296 297 299 299 300 301 301 300 301 305 306 305 308 308 307 308 310 311 311 312 314 316 318 321 321 324 325 326 327 328 331 335 335 336 335 336 337 336 336 336 335 333 331 330 329 327 326 324 323 321 320 320 320 319 318 318 318 317 315 316 317 318 317 316 319 315 315 317 317 313 315 309 302 301 297 295 295
300 298 299 298 297 296 300 298 298 299 298 298 295 296 297 298 298 297 297 294 295 297 300 300 301 302 301 301 302 303 303 305 305 306 307 307 307 308 310 309 311 314 315 318 321 323 325 326 327 328 328 331 334 335 335 333 333 334 334 334 334 332 330 328 327 327 325 324 324 322 321 320 319 317 317 317 316 316 315 313 314 314 312 314 315 314 313 312 309 309 306 303 300 298 297 296 295
295 297 297 298 298 297 299 299 298 298 298 297 296 297 299 298 297 297 297 297 300 302 301 302 302 303 303 301 302 302 301 301 301 304 306 306 306 306 307 310 309 309 313 317 321 322 324 325 326 328 328 327 331 333 334 331 331 333 333 333 332 330 329 327 325 326 325 325 324 323 321 319 318 317 315 315 315 315 315 314 313 312 312 313 313 313 312 310 308 306 304 302 298 296 295 296 296
300 296 297 300 298 298 300 300 297 295 297 298 299 299 297 297 296 298 296 300 301 302 302 302 303 303 302 301 301 301 302 302 303 302 305 307 307 308 308 307 308 307 312 315 318 322 322 324 325 326 328 328 327 330 332 331 329 330 331 329 330 328 327 327 326 325 324 324 324 323 322 321 318 316 315 315 315 314 314 314 314 312 312 311 311 313 311 308 306 304 302 299 297 295 295 295 296
295 293 296 298 299 299 297 295 296 296 297 297 297 297 298 297 298 298 299 301 303 303 304 302 302 302 302 301 301 301 300 301 301 302 304 304 306 308 307 307 305 305 308 313 316 320 322 324 325 326 327 327 328 328 329 330 328 327 327 328 329 324 327 327 326 324 323 323 322 323 321 320 318 317 315 315 314 314 313 314 314 313 312 311 310 309 310 308 305 302 300 300 297 295 295 295 295
295 296 297 296 296 296 297 297 298 298 299 298 296 296 297 298 299 297 301 302 303 303 302 302 301 299 300 301 301 300 300 300 301 301 302 303 305 305 305 307 307 305 308 309 314 319 321 323 324 325 326 327 328 327 327 327 327 326 326 327 328 323 325 325 324 323 323 322 321 320 320 320 319 317 315 314 314 313 313 313 313 312 312 311 310 309 307 308 305 299 297 297 296 295 295 296 295
297 295 295 294 295 295 297 296 298 298 297 297 295 295 296 297 298 294 298 301 301 298 299 298 297 298 299 300 301 299 298 298 299 300 302 304 304 305 305 306 306 308 306 305 312 316 319 322 323 324 326 324 325 326 326 326 326 327 326 326 324 324 323 322 322 323 322 322 321 319 319 318 318 317 315 314 314 313 312 312 313 312 311 310 310 308 306 306 303 299 297 295 295 295 295 294 293
297 296 294 295 296 296 297 297 297 297 295 297 296 295 296 295 296 296 300 302 300 298 299 299 299 299 298 297 297 298 299 300 300 299 301 301 302 303 303 304 305 306 305 306 306 312 314 320 322 323 325 324 324 325 324 325 325 326 325 325 323 322 321 320 320 321 320 321 320 319 318 318 316 316 315 314 314 311 310 311 311 311 311 309 309 308 305 304 301 297 296 295 294 294 294 293 293
296 296 292 293 294 294 297 295 297 296 295 296 296 293 292 294 293 298 300 301 299 299 298 298 299 299 298 297 297 298 299 299 301 301 301 301 302 303 302 303 303 304 306 307 307 309 313 316 321 322 323 322 323 324 324 324 322 321 322 322 323 321 320 320 319 319 320 319 319 319 318 317 316 316 313 314 312 311 310 310 310 310 310 308 307 307 303 300 298 295 295 295 293 293 293 292 294
296 294 292 292 291 290 296 297 296 295 294 295 296 285 287 293 296 298 300 298 298 296 296 297 297 297 297 297 297 298 301 302 301 301 302 302 303 303 302 303 303 302 303 305 307 308 311 314 318 319 320 321 321 322 320 320 318 318 318 318 319 319 317 317 317 318 318 318 318 317 317 316 315 314 313 311 311 311 309 310 310 309 308 307 306 303 302 298 296 295 294 294 295 293 292 292 292
291 293 292 287 286 285 294 295 294 294 295 296 297 287 286 292 295 297 299 297 297 296 296 297 299 298 297 297 297 300 301 302 302 303 303 303 303 303 303 303 303 303 302 303 305 307 308 312 316 318 315 316 316 318 318 318 316 317 316 316 318 317 317 317 315 317 316 316 317 316 316 315 314 312 311 311 310 309 309 308 309 309 306 304 304 300 301 296 295 295 294 293 293 291 291 292 291
291 288 283 286 287 286 293 297 295 294 295 294 294 287 288 292 295 298 298 297 298 298 299 299 299 299 298 296 298 300 300 301 302 302 302 302 302 302 302 302 302 302 302 303 304 307 309 310 311 312 312 313 314 315 314 315 316 314 314 314 316 314 315 315 314 315 315 313 314 315 313 313 313 311 309 309 309 308 308 308 308 306 304 302 302 298 298 296 294 294 294 293 292 291 291 291 291
289 288 283 286 285 287 291 295 295 295 292 294 293 288 288 290 294 297 298 297 296 296 297 297 297 297 297 298 299 299 299 299 300 301 301 301 301 301 302 302 302 302 302 302 302 304 307 310 311 312 311 311 312 313 312 312 313 313 313 314 313 313 316 313 313 314 315 314 313 312 312 313 312 310 308 308 309 307 307 307 306 304 302 301 299 297 296 296 294 295 293 293 293 291 291 290 290
285 287 285 286 287 288 287 292 295 294 293 290 291 289 289 292 291 294 296 297 297 296 297 297 296 295 298 298 298 298 298 297 297 298 300 300 300 301 301 302 301 301 302 302 302 303 303 306 308 308 310 311 311 311 310 311 312 312 311 312 311 313 311 312 312 314 313 312 313 311 311 312 311 310 307 306 306 307 306 306 304 303 300 299 298 296 295 294 294 294 293 291 292 291 290 290 290
284 286 286 287 288 288 289 290 292 296 294 293 290 289 289 292 294 295 297 298 297 296 296 295 295 296 298 298 297 297 296 296 296 297 298 299 299 300 300 300 300 301 301 301 302 302 303 303 305 305 306 308 311 311 310 312 312 312 311 310 310 309 310 309 311 312 312 312 312 309 310 311 310 309 307 305 306 304 303 303 303 301 300 298 297 295 293 292 293 293 293 291 290 291 291 290 290
289 290 289 288 288 287 289 292 295 296 293 293 291 292 293 292 292 295 297 299 296 296 296 295 296 298 297 297 297 296 295 295 296 297 297 298 298 298 299 299 299 299 300 300 301 301 301 302 302 303 303 305 307 310 311 310 310 308 308 308 309 308 308 308 310 308 308 309 309 308 308 310 309 309 308 305 305 304 301 301 302 300 299 297 296 295 293 291 292 292 292 291 290 289 289 289 290
292 290 289 288 288 289 291 293 294 295 293 290 292 292 289 291 293 295 298 299 296 295 294 294 297 296 296 296 295 295 294 294 296 296 296 296 297 297 298 298 298 298 299 299 299 299 300 300 301 300 301 302 302 306 308 307 307 304 305 306 306 306 306 306 308 307 308 307 306 307 306 308 307 307 307 305 304 302 302 299 300 299 298 297 296 296 295 293 293 293 292 291 290 289 288 288 291
290 289 288 288 288 288 292 293 295 296 293 288 289 289 290 291 294 297 299 297 296 295 294 295 295 295 295 294 293 293 294 295 295 295 295 295 295 296 296 297 297 296 296 297 297 297 298 299 299 299 300 300 300 300 302 303 305 306 306 304 305 304 306 306 307 306 307 307 306 305 305 305 305 307 306 306 304 302 301 298 298 298 297 296 296 296 293 293 291 291 290 288 289 290 289 289 291
292 290 288 287 287 290 292 293 295 293 293 287 287 290 291 293 294 297 297 296 295 295 295 295 295 294 294 293 293 293 293 293 293 294 294 294 294 295 295 295 296 296 296 296 296 297 297 297 298 298 299 299 299 299 300 299 301 304 305 302 304 303 303 304 304 303 304 305 303 304 304 304 303 304 304 304 304 302 301 299 298 297 297 297 295 293 292 291 291 291 290 291 288 288 288 290 290
289 289 286 287 289 288 284 288 291 293 293 289 289 289 290 292 295 296 296 295 295 295 295 294 295 293 292 293 293 292 292 291 291 292 292 292 293 293 294 294 295 295 295 295 295 295 296 296 296 297 297 298 298 298 299 299 299 300 300 301 302 304 301 299 301 300 302 303 304 301 301 302 302 302 301 301 303 302 300 299 298 295 296 296 296 294 292 292 291 290 290 290 289 288 288 288 290
288 290 288 288 288 289 288 288 291 291 292 291 288 288 286 291 292 292 293 295 295 295 295 294 294 294 294 293 292 292 291 291 291 291 291 291 291 292 292 293 294 294 294 294 294 294 295 295 295 296 296 296 297 297 298 298 299 299 299 300 300 299 298 300 299 298 298 298 300 302 302 300 300 300 300 300 300 302 300 299 296 295 295 295 294 294 293 293 292 292 291 291 289 290 288 287 289
288 289 292 291 291 290 290 290 288 284 284 287 289 279 278 286 289 291 292 291 292 293 292 292 292 293 292 291 291 291 292 291 291 290 290 290 290 291 291 292 292 293 293 294 295 294 294 294 294 295 295 296 296 296 297 297 297 297 297 296 296 294 294 295 296 296 297 298 299 298 299 299 299 299 298 298 298 298 298 298 296 294 294 294 294 294 294 292 291 291 291 291 290 289 289 287 288
287 288 292 292 291 290 289 288 287 280 280 287 289 281 276 284 289 290 291 289 290 291 290 291 291 291 291 291 291 290 290 290 290 290 290 290 290 290 290 291 291 292 292 293 294 294 294 294 294 294 294 295 296 296 296 296 296 296 295 295 294 294 293 295 295 295 296 296 298 298 298 298 299 299 297 296 297 296 296 296 296 295 294 293 293 293 292 292 292 291 291 291 290 291 287 287 288
285 288 291 290 290 289 288 288 287 284 284 285 289 285 280 280 285 293 290 289 288 289 289 290 290 290 290 290 290 290 290 290 289 289 290 290 290 289 289 290 290 291 292 292 293 293 293 293 293 293 294 294 294 295 295 295 294 294 294 294 294 294 294 294 295 296 296 296 296 296 297 297 297 297 298 296 295 295 295 296 295 295 294 292 292 292 293 292 292 292 291 291 291 290 289 289 288
286 290 291 290 290 288 288 287 284 282 283 279 282 286 281 278 283 289 289 287 286 287 288 288 289 289 289 289 289 289 289 289 289 289 289 289 289 289 289 289 290 290 291 291 291 292 292 292 292 293 293 293 293 293 294 294 294 294 293 293 293 293 294 294 294 295 295 295 295 295 295 295 296 295 296 296 295 295 294 295 294 294 294 293 292 292 291 291 291 291 291 290 290 289 289 288 287
291 291 291 290 289 289 288 284 284 281 281 276 281 285 279 279 284 286 287 286 285 286 287 288 288 288 288 288 288 289 288 288 288 289 288 288 289 289 289 289 289 289 290 291 291 291 291 291 291 291 291 292 293 292 292 292 293 293 292 292 292 292 293 293 293 293 294 294 293 294 294 294 294 294 295 294 294 294 294 293 294 294 294 294 292 291 290 290 290 290 291 291 291 290 290 288 288
292 290 288 284 285 284 283 282 282 279 274 278 284 285 284 276 282 285 284 285 288 287 286 287 287 287 287 287 287 288 288 287 287 287 287 288 288 288 288 288 288 289 289 289 290 290 290 290 290 290 291 292 292 292 292 291 291 291 291 291 291 291 291 292 291 291 292 292 292 292 293 293 293 293 292 294 294 294 293 293 293 294 294 293 293 291 291 290 291 290 290 290 290 290 290 289 289
289 285 282 284 283 280 281 278 278 275 272 278 281 284 286 277 278 285 287 288 290 288 286 286 286 286 287 286 287 287 287 287 287 287 287 287 287 287 288 287 288 288 288 288 288 289 290 289 289 289 290 290 291 291 291 291 291 291 290 290 290 290 290 290 290 289 290 290 291 291 292 292 292 292 292 291 292 293 293 293 292 292 292 292 293 293 293 292 291 290 289 289 290 290 290 290 289
286 283 283 280 274 276 274 275 272 273 274 278 282 283 282 282 283 285 286 287 289 288 288 287 286 286 286 286 286 286 286 286 286 285 286 286 286 286 286 286 287 286 286 287 287 287 288 288 288 288 288 288 289 290 290 290 290 290 290 290 290 290 290 289 289 289 289 289 290 290 290 290 291 291 291 291 291 292 292 293 293 293 293 293 293 292 292 292 291 290 290 289 289 289 290 289 289
284 283 280 277 273 272 266 268 272 272 276 280 282 285 280 283 284 286 285 286 288 288 288 287 287 286 286 286 286 286 285 285 285 284 284 284 285 285 285 285 285 286 286 286 286 286 286 287 287 287 287 287 288 288 289 289 289 289 289 289 289 289 289 289 289 288 289 289 289 289 289 289 289 289 290 290 291 291 291 292 292 293 292 292 291 291 291 291 291 291 290 289 288 289 289 289 289
285 284 286 282 275 272 269 270 271 272 274 277 280 278 275 277 281 285 286 286 287 287 287 287 286 286 286 285 285 285 285 284 284 283 284 284 284 284 284 285 285 285 285 285 285 285 285 285 285 285 286 286 287 287 287 287 287 287 288 288 288 288 288 288 288 288 288 288 288 288 288 288 288 288 289 290 290 290 290 290 291 291 291 291 290 289 291 290 290 290 290 290 289 288 288 288 288
284 284 286 280 280 281 277 275 273 272 276 276 276 278 278 280 285 285 285 286 286 286 286 286 285 285 285 285 285 284 284 284 284 283 283 283 283 283 284 284 284 284 284 284 284 283 283 284 284 284 284 285 285 286 286 286 286 286 286 286 286 287 287 287 287 287 288 288 287 287 287 288 288 288 289 289 289 289 289 289 289 290 290 290 290 289 289 289 288 289 289 288 288 289 287 286 286
283 287 281 283 285 286 280 279 278 277 277 276 276 281 282 284 285 284 284 284 284 284 284 284 284 284 284 284 284 284 284 283 283 283 282 282 282 282 283 283 283 284 285 285 284 283 283 284 284 283 284 284 285 285 286 286 286 286 286 286 285 285 285 285 286 285 286 287 287 287 287 287 288 288 288 289 288 288 288 287 287 288 288 288 288 288 288 287 287 287 287 287 287 287 286 286 286
284 281 282 285 289 288 283 274 275 275 273 275 279 274 276 278 273 283 283 282 283 283 283 284 284 283 283 284 284 284 284 284 284 283 282 282 282 282 283 284 284 285 286 286 285 285 285 285 284 284 284 284 284 285 285 285 285 285 285 284 284 284 284 285 285 285 284 284 285 285 286 286 286 287 288 288 287 287 287 287 287 287 286 286 286 286 286 287 286 287 287 286 286 286 286 286 285
287 283 288 286 278 278 280 277 271 270 270 270 273 278 278 280 280 280 280 281 282 283 283 283 283 283 283 283 283 283 283 284 284 284 283 283 283 284 284 283 284 285 286 286 287 286 285 284 285 284 284 284 283 284 284 285 285 285 285 284 284 284 284 284 284 284 283 283 283 284 284 285 285 286 286 286 286 286 286 286 287 287 287 286 286 286 285 286 286 286 286 286 286 285 285 285 286
288 288 285 283 282 277 275 278 273 276 272 272 269 278 274 280 281 282 282 283 283 283 283 283 284 284 284 283 283 283 283 283 283 283 283 283 283 283 283 283 283 284 284 285 286 287 286 286 285 285 285 285 285 286 286 285 285 284 284 284 284 284 283 283 283 283 283 282 283 283 283 284 284 285 285 284 284 284 285 285 286 286 286 286 287 287 286 285 285 286 286 286 286 285 285 285 285
284 284 282 284 282 283 282 281 278 276 272 272 272 272 276 281 285 284 284 285 285 284 284 284 284 284 284 284 284 283 283 283 283 283 283 283 284 283 283 283 284 283 284 285 286 286 287 286 286 286 285 285 285 286 286 286 286 286 285 285 285 285 285 285 284 284 283 283 283 282 281 282 283 283 283 283 283 283 284 284 285 285 285 286 286 286 287 286 285 285 285 285 285 285 285 285 285
284 282 280 282 281 278 276 276 283 277 278 275 275 275 276 285 288 287 285 286 285 286 285 285 285 285 284 284 284 284 284 285 285 285 285 285 284 285 284 284 284 283 283 283 285 285 285 285 285 285 284 284 284 285 285 285 285 286 285 284 284 284 284 284 283 282 282 282 283 283 283 283 281 281 280 281 281 282 282 282 283 284 285 285 285 286 286 286 286 285 285 286 286 285 285 285 285
Wind_Speed
7 7 6 6 2 2 3 2 1 3 2 1 3 1 1 0 1 3 3 1 2 1 1 1 0 3 1 1 3 2 3 1 5 2 2 2 1 3 5 6 5 10 11 9 10 11 12 15 17 17 17 17 17 17 17 16 16 15 14 14 14 13 14 13 12 11 11 11 10 10 9 9 9 9 9 9 9 9 9 9 8 8 9 9 9 10 9 9 10 10 8 8 8 9 9 8 8
5 5 6 4 3 4 1 1 2 2 4 3 2 1 1 1 3 2 3 3 2 1 1 2 1 1 2 3 2 0 4 9 4 2 1 1 2 2 4 5 8 10 9 9 9 9 10 12 17 17 17 18 19 18 17 16 16 15 15 15 14 14 14 13 12 12 11 11 11 10 10 10 11 11 12 11 11 11 8 8 8 8 8 8 8 8 8 9 9 9 8 7 7 8 8 8 7
4 6 6 6 2 1 2 2 1 1 3 2 2 1 1 5 3 1 4 4 4 3 3 1 0 0 1 3 1 3 1 2 2 2 0 1 3 4 4 4 6 8 10 8 9 9 8 11 16 17 18 17 19 18 17 17 17 16 15 15 15 14 14 13 13 13 12 11 10 10 10 11 12 12 12 11 11 10 9 9 9 8 8 8 9 8 8 9 9 8 6 6 7 7 7 7 7
3 1 0 3 2 3 2 2 3 2 1 3 1 4 2 2 1 4 4 5 5 3 1 0 0 1 2 1 2 1 3 0 1 4 1 3 5 4 6 5 6 7 7 8 9 8 7 11 15 17 18 17 19 18 17 17 17 16 15 15 15 14 14 14 13 13 12 11 11 11 12 13 13 13 12 11 12 11 9 8 8 7 7 8 7 7 7 6 5 6 4 4 5 6 6 6 7
3 3 2 1 2 2 1 1 1 2 1 1 2 1 1 2 1 1 1 2 3 4 1 1 1 1 2 1 1 1 2 1 1 2 2 2 0 6 5 5 5 8 8 8 9 8 7 13 14 16 17 19 19 18 16 16 16 16 14 14 15 14 14 14 13 13 12 12 12 12 13 13 13 12 11 11 11 10 8 8 7 7 5 4 5 6 5 4 4 5 3 2 3 5 5 6 6
4 3 1 2 0 2 3 1 2 1 8 2 1 1 1 1 2 0 3 2 1 1 2 1 1 0 1 1 3 1 2 1 2 1 3 4 5 6 6 5 5 8 8 8 9 8 7 12 14 14 17 19 19 18 16 16 17 16 14 15 14 14 14 13 13 13 12 12 13 13 14 14 13 12 12 10 10 11 8 4 7 6 4 4 6 5 4 4 3 3 3 2 2 4 5 5 5
3 5 2 3 1 2 3 1 4 3 8 5 2 1 1 1 3 3 4 1 1 2 1 1 1 1 1 2 2 2 2 1 2 2 4 5 6 6 6 5 4 7 10 9 8 9 9 13 13 14 15 15 17 17 15 16 17 16 15 15 14 14 13 13 13 13 13 13 13 14 14 14 13 12 12 12 10 9 7 6 5 5 4 1 2 5 4 3 2 3 1 1 1 4 4 4 5
0 2 1 3 1 2 1 1 4 4 4 2 4 3 0 3 3 2 2 1 1 0 1 1 2 3 6 3 1 2 4 4 2 3 5 7 7 6 6 6 5 6 9 9 9 8 12 15 14 14 14 15 15 15 15 16 16 15 15 16 15 14 14 14 14 13 12 13 14 15 14 13 12 11 12 10 10 10 7 5 5 1 4 2 3 3 6 3 2 1 2 2 2 4 4 4 4
2 1 1 4 1 1 2 4 4 4 2 1 1 2 4 4 3 2 1 1 3 0 1 1 4 2 2 4 3 2 1 0 2 5 7 7 9 8 7 7 6 7 7 8 9 8 11 15 15 15 14 15 14 14 16 16 16 15 15 15 15 15 14 14 13 11 11 14 15 14 14 13 12 12 12 12 10 10 9 8 6 5 5 6 5 3 4 2 3 3 3 2 3 4 4 4 4
1 2 1 1 2 2 2 6 3 2 2 2 1 1 3 1 1 1 0 4 2 1 3 4 3 2 1 3 4 3 1 3 3 3 4 7 8 7 6 8 6 8 8 5 8 8 9 16 17 15 14 14 14 14 17 14 15 14 15 15 15 14 13 13 11 11 11 13 14 14 14 13 12 13 13 12 11 10 9 8 6 6 7 4 5 4 4 3 3 4 3 3 3 4 4 4 4
2 2 2 2 4 1 2 5 3 6 3 3 2 2 3 3 2 1 1 4 1 1 0 2 1 2 0 3 3 1 0 4 4 6 6 6 6 7 7 6 6 8 8 6 6 8 9 12 19 16 14 14 13 14 15 13 14 13 14 13 13 13 12 12 11 11 13 12 14 14 13 11 11 11 13 12 11 10 9 8 6 6 4 5 4 4 5 4 4 4 4 3 4 4 4 4 4
2 1 3 0 1 2 3 3 7 8 7 2 1 2 1 4 2 1 3 2 2 2 2 3 1 1 1 1 2 1 2 3 4 3 4 5 5 5 5 5 5 6 7 7 7 7 8 9 11 14 16 14 13 13 13 13 13 13 13 13 13 12 11 12 11 12 13 13 13 13 11 11 10 14 13 12 11 10 9 8 7 6 6 6 6 7 5 5 5 5 5 4 4 4 4 4 4
1 1 2 1 2 1 3 3 5 2 3 1 1 1 0 3 1 1 2 1 3 5 2 3 0 1 2 1 2 2 2 3 1 4 3 4 4 3 3 3 3 5 6 7 7 7 8 8 9 9 11 15 12 12 12 13 13 13 13 13 12 12 12 11 11 12 12 12 12 12 11 10 12 12 12 13 12 11 10 8 8 7 7 7 6 6 6 6 5 6 5 4 5 4 4 4 4
1 0 1 2 0 2 2 3 3 3 4 2 2 1 0 1 2 2 1 4 5 1 2 5 0 2 4 2 5 3 5 4 3 4 1 1 2 2 1 2 1 3 5 7 7 7 8 8 8 8 9 9 8 10 12 13 13 13 13 13 12 12 11 12 12 12 12 11 10 9 8 9 12 11 10 13 11 10 9 8 7 8 8 7 6 6 6 6 6 6 6 5 5 5 5 4 5
1 0 1 1 3 2 2 1 3 2 1 2 2 2 0 3 2 2 3 2 7 4 0 0 3 3 4 3 4 3 6 6 5 2 3 3 2 2 3 1 1 1 1 5 6 8 8 8 8 7 8 7 8 7 7 10 13 13 14 13 12 13 12 11 12 11 10 9 9 8 7 7 10 10 12 12 11 10 9 7 6 7 8 8 8 7 7 7 7 7 7 6 6 6 5 5 5
1 2 2 0 2 0 6 1 1 1 1 2 3 2 1 2 1 1 3 4 3 3 0 4 0 3 3 2 7 8 4 7 5 4 4 3 3 1 3 1 3 1 0 3 5 6 7 8 8 8 8 8 8 8 8 8 11 13 13 14 13 13 13 11 12 10 9 9 8 8 9 6 7 9 12 10 12 11 10 7 7 5 7 8 8 8 8 8 8 8 7 8 7 6 5 5 5
2 4 1 1 4 1 4 0 1 2 4 2 2 0 1 1 3 0 0 0 3 6 5 3 4 1 6 7 10 6 4 5 6 5 4 3 3 2 0 1 1 2 2 3 4 5 7 9 10 8 9 10 9 9 8 9 10 14 12 14 14 14 13 12 11 11 9 8 8 8 8 5 5 5 7 6 10 7 9 9 8 6 6 6 8 8 9 9 9 9 8 9 8 7 6 5 4
3 1 3 1 5 1 4 1 1 2 1 3 3 1 2 3 4 3 3 3 2 4 7 6 4 5 6 8 3 3 4 8 5 7 4 4 2 4 4 4 3 7 6 6 5 5 7 9 11 10 9 11 10 9 8 8 8 12 11 10 10 11 11 10 9 8 7 5 8 7 5 5 5 5 6 7 6 7 8 10 9 8 6 5 6 8 9 9 9 9 9 9 9 8 6 2 2
2 1 2 6 3 7 2 2 5 4 6 4 3 2 3 2 1 2 3 4 4 6 7 6 10 7 7 9 6 5 7 6 7 6 7 7 7 8 7 6 6 4 6 6 7 7 7 7 8 10 11 11 11 11 9 8 9 8 9 10 9 10 9 9 7 7 6 7 6 6 6 6 5 5 6 7 6 9 8 10 10 9 7 6 7 7 8 9 10 10 10 10 10 8 3 2 1
3 3 4 6 5 4 8 5 7 3 3 4 3 2 4 4 2 1 2 8 4 7 9 6 7 13 6 8 1 4 6 6 5 6 6 7 7 8 6 7 7 8 9 9 10 7 7 8 8 10 11 11 11 10 9 9 9 8 8 8 8 8 8 8 8 7 7 7 7 7 6 6 6 6 7 11 9 6 7 9 10 10 8 7 8 6 8 8 10 11 10 11 7 4 3 2 2
2 3 4 5 5 3 6 4 7 8 2 4 3 3 6 4 2 1 5 8 9 9 8 10 15 14 10 6 6 3 5 5 6 6 6 7 7 6 8 10 10 10 10 8 6 8 9 9 7 7 8 10 11 9 9 9 9 9 8 8 8 8 8 8 7 7 7 8 8 7 7 6 6 6 6 6 6 6 5 5 5 6 5 4 7 4 4 4 4 3 5 6 5 4 3 3 2
3 8 7 7 3 4 8 6 8 4 3 3 4 6 6 1 3 2 2 6 13 7 8 8 12 14 9 8 8 3 5 7 8 7 9 10 10 10 8 6 6 5 4 6 10 9 10 10 10 9 7 9 11 10 10 9 10 9 9 9 9 8 8 8 7 8 7 8 8 7 7 7 7 7 6 7 6 7 6 6 6 6 5 5 4 6 6 5 4 5 5 5 4 3 3 3 3
5 3 4 6 6 5 2 4 5 3 6 4 4 4 1 2 6 3 6 11 16 13 8 9 10 12 11 5 5 6 6 6 7 9 10 10 9 9 8 8 8 7 6 9 8 9 10 9 10 9 9 7 10 9 8 7 8 8 9 9 10 9 8 8 8 8 8 8 8 8 8 7 7 7 7 7 7 7 7 6 6 6 6 6 6 6 6 5 6 6 5 4 4 3 3 4 3
6 7 2 7 5 6 6 7 7 5 6 5 4 3 4 3 10 2 4 12 15 15 10 10 11 11 8 9 8 9 9 8 9 8 11 13 13 12 11 10 8 6 5 8 8 8 9 12 11 10 10 8 7 8 9 8 7 7 8 8 9 9 9 8 8 8 7 8 9 8 9 8 8 7 7 7 7 7 7 7 6 6 6 6 6 6 7 6 6 6 5 4 4 3 3 4 3
4 5 3 3 2 4 5 4 5 6 7 6 5 7 12 5 6 4 12 14 17 16 13 10 10 10 11 9 10 8 7 7 7 7 5 8 8 9 6 7 6 5 7 7 7 7 10 10 9 11 10 11 9 8 8 8 6 6 7 8 9 8 9 8 8 7 7 7 7 9 9 8 7 8 8 8 7 7 7 8 7 7 7 6 6 6 7 7 6 6 6 5 4 4 4 4 4
0 2 1 1 3 4 5 7 9 10 8 5 5 11 10 7 5 8 17 17 17 14 10 11 8 6 9 11 10 7 7 7 6 6 8 7 6 5 8 8 6 6 10 7 5 8 7 8 10 11 11 10 9 7 8 8 8 8 8 8 8 7 8 8 6 7 7 7 7 7 8 8 9 8 7 6 8 7 7 7 7 7 7 7 7 7 6 7 7 6 6 5 5 5 5 5 4
1 3 3 4 5 5 5 5 11 12 6 8 6 11 12 2 5 9 4 12 9 5 9 7 6 7 7 7 8 6 4 6 8 6 3 3 4 7 7 5 4 9 4 4 5 6 6 6 8 9 9 7 6 8 7 8 7 8 8 7 7 8 7 6 7 7 7 7 7 7 6 6 7 7 8 8 7 7 7 7 7 7 7 8 7 7 6 7 6 7 7 7 6 6 6 5 6
2 1 5 8 8 7 9 10 16 9 5 8 9 12 12 3 2 12 15 15 8 6 11 11 10 8 5 4 5 5 5 7 7 6 8 11 10 9 11 10 9 8 3 5 6 2 4 7 8 8 8 7 7 7 6 6 6 7 5 6 6 6 6 6 7 7 7 7 6 7 7 7 7 6 7 7 8 7 7 7 7 7 8 7 7 7 7 6 7 6 6 6 5 5 6 4 4
3 2 6 7 7 7 11 10 11 3 6 4 7 2 6 3 5 14 14 13 8 9 11 12 11 8 5 4 4 5 8 10 12 13 9 7 7 9 10 9 9 8 5 5 4 1 5 5 6 7 7 5 6 7 7 5 4 3 5 5 5 4 5 5 6 6 6 6 6 7 7 7 6 7 7 7 7 7 7 7 7 8 7 7 7 7 7 6 6 7 6 5 6 5 5 4 4
4 3 1 6 5 6 17 6 9 8 4 5 7 3 7 11 15 13 13 8 7 6 8 10 7 4 2 4 5 11 13 13 14 10 10 9 10 11 12 11 11 9 9 8 2 3 2 3 3 4 5 6 7 5 4 4 4 3 3 3 3 4 5 5 5 5 6 6 6 6 7 6 6 6 7 6 6 6 6 7 7 7 7 7 7 7 8 7 7 7 7 7 7 7 7 6 6
3 4 2 4 4 6 10 2 3 0 2 8 8 5 7 9 11 9 9 5 2 5 8 9 7 5 5 4 7 10 11 11 12 13 12 12 11 11 13 14 14 12 11 11 10 5 3 1 2 3 4 4 4 4 4 4 3 3 3 3 3 4 4 4 4 4 5 5 6 6 6 6 6 6 6 7 6 6 6 6 7 7 7 7 8 7 8 7 7 8 7 8 6 7 7 7 7
2 3 4 2 6 7 11 11 3 6 0 3 5 3 8 8 10 10 9 6 6 10 11 10 7 7 6 5 10 10 9 11 14 15 14 13 12 11 13 13 13 14 12 11 11 10 9 5 5 4 3 3 3 3 2 3 3 3 3 4 4 3 3 3 4 4 4 4 4 5 4 5 5 5 5 6 7 6 7 7 7 6 6 7 7 7 7 9 7 7 7 8 8 7 7 6 6
2 5 3 3 2 6 6 7 2 1 3 1 4 7 2 5 9 10 10 7 7 8 12 9 7 6 7 11 9 8 10 12 14 15 16 12 13 12 13 14 14 12 12 14 13 13 12 10 10 9 7 5 3 2 3 3 3 3 3 3 3 4 4 4 4 4 4 4 4 5 4 5 5 5 5 5 6 6 6 6 6 6 5 6 7 7 8 7 8 7 7 7 8 8 8 7 5
5 2 6 5 5 3 3 8 4 1 3 2 4 4 6 6 5 8 10 9 9 11 12 10 6 6 10 11 11 11 12 13 15 14 15 14 13 16 14 13 13 13 12 13 13 13 10 9 8 9 8 6 5 3 3 4 3 3 4 3 3 3 3 3 3 4 4 4 5 5 5 5 6 5 5 5 5 6 6 6 5 5 6 6 6 6 7 6 6 8 8 6 7 8 8 9 8
4 3 4 6 3 4 6 3 3 4 1 3 3 6 9 11 10 11 13 14 11 8 6 5 5 9 9 11 11 12 12 15 13 11 12 13 15 14 13 12 13 12 11 13 14 13 12 11 10 10 10 9 7 6 5 6 6 5 6 6 5 4 3 3 3 3 3 4 4 4 5 5 5 5 5 5 6 6 5 5 5 5 6 7 6 6 5 5 5 6 9 8 5 7 9 9 8
7 7 7 5 6 6 6 6 4 1 5 7 6 9 8 5 7 10 11 10 4 5 1 3 8 10 10 10 10 11 12 13 9 10 11 13 13 13 12 11 11 11 13 13 15 15 15 14 12 12 11 10 7 6 6 6 6 6 6 5 6 5 3 3 4 2 1 2 3 4 4 4 4 5 5 5 5 6 5 6 6 5 6 6 7 7 7 7 9 9 9 10 8 4 3 6 6
6 4 5 7 6 5 4 5 5 2 3 4 8 7 3 6 8 10 16 10 6 5 4 7 9 10 10 11 11 11 13 11 6 10 12 13 13 12 11 11 11 13 14 15 15 14 14 12 12 12 10 11 10 9 7 6 5 4 3 5 2 2 3 3 3 3 2 1 2 2 3 4 4 4 5 5 6 6 6 6 6 5 6 7 8 9 8 9 8 7 7 5 9 7 5 4 6
7 6 6 7 3 7 4 4 3 5 1 3 3 4 6 7 9 16 16 9 12 7 5 11 11 11 10 11 11 11 8 6 9 13 14 13 12 12 11 12 13 16 15 14 14 13 13 13 12 11 11 11 10 8 7 7 5 2 3 3 1 2 4 2 1 1 1 0 1 2 3 3 4 5 5 5 5 6 6 6 6 8 7 7 8 6 6 6 5 5 5 5 5 9 8 8 9
6 6 3 3 6 4 4 6 3 1 1 5 3 5 7 9 10 19 11 8 7 7 10 7 13 11 10 10 10 10 11 11 12 11 11 12 12 12 11 11 12 11 11 13 12 13 13 11 11 9 10 10 10 10 8 6 5 5 5 4 6 3 3 3 3 2 3 3 2 1 1 2 3 4 4 4 5 5 6 6 7 7 7 7 7 6 6 7 8 8 8 9 6 4 4 5 9
5 6 4 8 4 2 6 5 3 2 1 3 3 7 8 8 12 14 8 7 9 12 16 14 10 13 12 10 9 10 10 11 13 11 11 10 11 11 12 12 11 11 12 12 12 12 10 11 11 11 10 9 9 10 9 7 6 4 3 4 4 5 2 3 4 5 5 4 3 2 1 1 2 3 3 4 4 4 5 6 5 5 6 6 8 8 7 9 8 7 7 8 7 7 5 8 8
3 4 4 4 5 4 6 5 4 3 5 0 2 3 5 8 10 5 10 10 12 9 15 13 11 10 10 10 12 10 11 9 10 11 11 11 12 12 11 9 9 11 11 11 11 11 9 11 11 11 10 10 9 11 10 8 9 9 8 9 8 7 7 8 8 8 7 4 3 3 1 1 2 3 3 4 4 5 4 4 4 5 5 6 6 7 8 10 9 9 11 10 9 10 9 6 8
3 3 7 7 5 5 3 2 3 6 5 2 1 6 3 6 5 9 7 5 9 5 12 10 9 8 8 12 10 8 9 7 9 10 9 8 9 9 11 11 12 11 12 10 9 10 11 11 12 12 11 11 11 11 11 8 8 7 7 7 7 6 6 7 6 4 6 7 6 3 2 0 1 1 2 3 4 4 4 5 4 4 4 5 5 7 7 6 7 8 9 9 9 9 9 5 6
0 6 2 5 5 3 1 1 3 1 1 2 3 0 8 2 3 5 5 9 8 6 8 7 7 7 8 8 7 7 8 8 8 8 8 10 8 9 10 11 10 12 10 9 10 11 12 11 11 11 11 10 11 11 12 10 9 7 6 5 5 6 6 4 2 3 4 6 5 4 2 2 0 2 2 2 3 4 4 4 4 4 4 4 4 5 6 7 7 8 7 8 10 9 5 8 10
4 2 3 4 3 1 1 0 2 5 1 4 2 4 6 4 5 13 8 10 7 7 6 6 7 7 8 7 6 6 6 7 8 8 8 7 8 8 9 9 9 9 7 8 10 10 12 12 12 12 10 10 10 10 11 10 8 8 9 7 7 7 6 4 5 5 4 5 7 7 5 3 2 2 3 3 3 4 4 4 4 4 4 4 4 5 7 6 6 5 6 8 8 8 9 10 9
4 2 5 2 3 2 1 1 3 2 1 7 5 3 1 5 7 2 13 10 4 6 5 5 6 6 7 7 6 6 5 5 6 8 8 7 8 8 7 9 7 9 9 9 8 8 9 10 11 11 12 11 11 13 12 12 10 8 8 8 8 7 7 7 6 7 7 7 7 7 7 6 4 3 3 4 4 4 4 4 4 4 4 5 4 5 5 5 7 7 7 7 8 8 8 8 6
3 3 2 2 1 1 1 2 1 2 0 5 5 5 4 7 5 2 1 7 7 6 7 6 5 5 5 6 5 5 4 5 5 7 7 8 7 6 5 5 9 8 7 7 8 8 9 9 10 12 12 10 11 13 12 12 11 9 10 10 10 9 8 8 7 9 8 8 8 8 7 8 8 6 4 4 4 4 4 4 4 4 5 5 4 4 4 5 5 6 7 8 9 10 8 8 10
3 3 1 4 4 2 2 2 2 2 3 6 9 7 7 5 3 3 9 7 8 9 5 5 5 5 4 4 4 4 4 4 5 6 6 7 6 6 5 8 7 8 7 8 8 7 7 8 8 11 11 10 12 12 11 11 10 10 10 10 10 10 10 9 9 10 9 9 9 9 8 8 7 7 7 6 4 4 4 4 4 5 5 4 4 4 5 6 6 7 7 7 8 10 9 9 9
4 1 2 5 5 3 2 2 3 1 6 7 5 7 9 6 4 2 4 3 13 15 16 12 9 5 5 4 4 4 4 4 5 6 7 7 9 10 9 10 10 10 11 11 9 9 9 9 11 12 13 12 10 11 11 11 9 9 9 9 10 10 9 9 10 10 10 9 9 9 8 9 9 8 8 8 7 7 6 5 4 4 4 4 5 5 5 5 6 5 6 6 7 8 8 9 9
3 4 3 1 4 3 2 2 1 5 6 2 1 4 1 9 4 3 5 5 6 4 9 12 11 8 5 4 4 4 4 5 6 6 7 7 7 7 8 7 8 9 9 9 10 9 9 10 11 11 11 10 10 8 9 8 9 9 9 9 8 8 9 9 9 10 8 9 9 9 9 9 9 9 9 9 9 8 8 7 6 6 6 5 6 4 5 5 5 5 6 6 7 7 8 9 10
5 4 4 4 1 1 2 4 2 3 5 5 1 1 3 3 1 3 4 4 6 10 9 8 8 8 7 5 4 4 4 5 6 6 5 5 5 5 5 5 5 6 7 8 8 8 8 8 8 8 8 7 7 7 7 8 8 8 8 8 8 8 8 9 9 9 9 8 8 8 8 8 8 8 9 8 8 9 8 7 7 7 5 5 4 4 4 5 4 6 6 6 7 8 7 8 10
9 4 9 9 6 3 3 3 5 5 6 3 3 2 5 3 1 3 3 3 7 7 8 6 6 5 5 4 4 4 5 4 4 5 5 4 5 4 4 4 4 5 6 8 8 9 7 7 5 6 7 8 7 6 5 6 6 7 7 7 7 7 7 8 8 7 8 8 8 8 8 7 8 8 8 8 9 9 9 9 9 7 6 5 4 4 5 4 4 5 5 6 7 6 7 8 8
3 3 4 4 5 4 5 5 2 1 2 5 2 4 1 2 1 3 3 5 7 6 6 6 6 4 4 5 4 4 3 4 4 4 4 4 4 4 4 5 4 4 5 6 6 5 4 4 5 6 6 5 5 5 5 5 5 5 6 8 7 7 6 6 7 7 7 6 6 6 7 7 7 7 7 9 9 8 9 9 8 8 7 6 5 5 5 4 5 5 6 6 7 5 7 7 8
2 5 4 5 3 3 0 4 1 2 0 8 3 3 2 0 1 2 3 6 4 4 4 4 5 4 4 4 4 3 4 4 4 4 4 4 4 3 3 2 3 4 5 5 4 3 3 4 5 6 6 5 6 5 5 5 6 8 8 8 7 8 8 8 7 7 7 7 6 7 7 7 7 8 8 8 9 9 9 8 8 8 7 6 6 6 6 5 5 5 6 6 7 7 7 7 8
5 2 6 1 1 3 2 3 1 2 6 7 1 4 2 3 5 4 1 5 5 4 5 4 4 4 4 4 3 4 3 4 3 3 3 3 3 3 2 2 3 3 3 3 3 3 4 4 5 6 7 8 7 7 8 8 8 8 7 7 7 7 7 7 7 7 6 6 6 6 6 8 8 8 7 7 8 9 10 10 9 9 8 7 6 5 5 6 5 6 6 6 6 6 7 6 6
4 2 1 0 3 2 2 3 3 3 5 4 3 6 5 9 6 4 7 9 8 7 4 5 4 4 4 4 4 3 3 3 4 4 3 3 2 2 2 3 2 2 2 2 2 3 4 4 5 4 5 4 4 5 5 5 4 4 4 5 5 6 6 5 5 5 6 6 7 6 6 6 6 7 8 9 9 9 9 10 9 9 9 9 7 6 5 5 5 6 6 7 6 5 6 7 7
1 2 1 0 3 3 1 5 4 3 6 4 4 6 7 3 4 14 13 10 10 9 6 6 7 6 6 5 4 4 4 3 3 3 2 2 1 1 1 2 2 2 2 2 1 2 3 2 3 3 3 3 5 5 5 5 4 4 5 4 5 4 5 4 5 5 6 6 5 6 7 7 8 7 7 7 7 8 9 10 10 9 9 9 9 8 7 6 6 5 6 7 7 6 6 7 8
1 1 2 0 1 3 1 2 3 4 3 5 6 8 3 2 2 12 14 14 12 10 9 7 7 7 6 6 6 4 4 3 3 3 2 2 1 1 1 1 1 2 1 2 2 2 2 1 1 1 2 3 3 3 3 4 4 5 5 5 5 4 4 3 3 2 2 3 4 4 4 4 5 7 6 7 7 7 7 7 8 9 9 9 9 9 8 7 6 6 6 6 7 6 7 7 6
3 3 4 5 2 3 5 10 2 1 5 5 6 11 3 1 2 7 11 9 10 9 10 8 8 7 7 5 5 5 4 4 3 2 2 1 1 2 2 2 1 1 3 2 3 3 3 3 3 2 2 3 2 3 3 3 4 4 4 5 5 4 4 4 4 4 4 3 3 3 3 3 3 5 3 4 5 5 5 6 6 8 8 8 8 8 8 7 7 8 8 6 6 7 7 7 6
Wind_Direction
318 316 305 292 289 306 39 3 60 308 61 261 289 35 232 326 179 51 57 351 31 259 197 318 345 17 169 199 186 197 209 163 208 121 221 231 327 194 174 187 135 145 152 160 165 169 172 171 169 167 168 170 169 166 166 164 162 163 163 165 164 164 162 161 162 163 166 165 168 170 165 155 148 139 130 124 128 122 127 121 116 120 122 116 117 114 113 105 92 84 81 80 81 81 78 76 73
302 321 314 317 284 62 289 115 106 0 33 15 274 103 250 331 47 114 109 123 195 204 233 178 263 225 321 229 203 225 296 204 175 188 218 274 357 108 204 176 144 150 152 157 164 168 171 173 170 168 168 170 170 168 166 166 166 165 165 168 169 167 167 165 168 170 175 176 176 171 164 153 144 138 132 131 116 112 111 113 118 119 120 117 116 112 105 100 92 83 79 78 77 79 80 77 75
319 350 336 0 37 79 281 49 25 96 76 28 287 228 332 44 100 122 154 156 185 202 197 269 191 58 334 32 354 131 257 265 107 65 100 325 94 245 219 182 146 145 149 158 162 169 172 175 172 168 170 170 170 170 169 169 168 168 168 171 173 172 172 171 172 177 180 181 177 170 156 153 148 141 134 125 120 112 113 114 115 116 118 111 107 101 100 90 88 88 74 73 78 75 76 75 71
325 258 317 44 340 23 50 22 106 137 22 213 312 320 55 130 85 148 170 183 189 132 78 22 88 244 134 7 212 162 252 6 185 152 138 233 199 200 186 180 150 138 143 157 166 168 171 178 174 171 171 171 172 171 170 171 170 171 171 175 175 175 177 176 178 181 185 182 176 168 160 157 150 151 135 135 126 117 113 107 116 120 115 116 103 103 95 88 84 89 81 64 77 77 75 76 74
344 305 138 64 99 357 78 211 155 99 311 212 127 258 63 109 92 62 244 210 193 125 125 169 66 300 197 239 230 160 230 248 9 113 144 236 173 159 169 181 144 138 153 160 164 168 173 177 179 173 172 174 173 173 172 172 171 173 172 177 178 178 182 182 184 185 187 181 175 171 163 159 165 153 144 143 129 123 123 123 114 97 72 66 122 120 112 95 87 88 88 69 71 85 81 80 79
320 359 354 98 120 175 44 25 338 309 229 163 95 246 178 159 101 73 346 52 156 119 160 82 172 291 341 219 191 165 188 69 184 89 143 220 168 166 172 169 147 144 156 161 166 164 174 179 180 178 174 177 176 175 173 172 172 174 173 178 182 185 186 186 188 188 187 182 175 170 165 167 165 155 148 144 151 138 137 139 144 84 76 43 13 162 136 128 129 96 97 73 66 87 82 79 78
321 21 359 20 352 62 162 135 252 212 275 168 176 205 120 95 106 63 335 55 339 43 24 170 68 26 9 285 323 246 314 217 102 192 167 173 154 162 168 170 139 155 157 162 165 166 170 177 182 182 177 179 179 174 175 172 174 176 175 179 184 186 189 191 191 189 190 185 174 170 171 174 168 163 143 143 144 141 150 170 170 148 113 56 95 358 168 153 157 164 145 116 81 80 81 78 72
32 95 295 90 293 49 328 206 263 163 277 165 192 115 148 120 105 68 299 65 294 130 274 306 98 120 249 335 226 276 4 8 148 111 136 133 150 165 168 170 156 176 156 162 166 163 169 174 183 184 180 180 181 174 177 176 178 175 177 180 184 186 191 193 195 191 191 185 176 173 176 177 171 156 147 142 140 144 159 173 147 190 158 160 251 214 215 214 168 158 152 152 102 89 80 75 72
336 98 341 68 9 13 7 288 256 249 258 329 350 95 91 117 105 122 325 244 343 153 154 209 156 76 257 1 236 256 346 310 126 130 142 145 154 171 168 176 168 178 173 155 168 160 168 176 181 184 182 182 181 177 179 180 180 179 179 183 185 187 191 194 194 191 191 185 176 175 178 175 173 169 151 149 148 146 144 145 166 165 165 194 223 239 310 224 193 181 172 167 128 97 90 80 75
338 95 323 124 125 329 332 303 28 260 311 270 99 136 99 102 40 87 184 332 232 85 229 202 149 171 266 303 305 319 222 176 139 112 171 162 162 164 172 187 175 163 180 150 161 163 168 176 178 182 183 183 183 178 182 182 183 181 183 187 188 189 191 192 193 187 182 185 177 177 180 176 170 167 157 158 155 153 152 160 168 179 220 222 198 199 203 200 168 170 159 161 122 105 94 86 86
352 1 145 58 27 359 306 274 261 311 283 298 40 350 110 92 90 353 289 265 320 271 313 121 6 253 78 264 214 255 153 154 146 178 199 171 164 167 178 193 179 164 171 155 155 160 167 176 177 179 181 183 183 179 182 183 183 184 185 187 189 193 191 190 191 182 179 181 178 180 179 177 177 164 158 163 158 158 160 167 192 209 212 187 198 200 194 168 162 171 171 147 118 109 104 99 88
14 358 9 96 265 186 244 290 303 296 327 359 36 319 310 106 75 24 327 23 310 342 231 149 258 159 244 274 281 275 158 195 221 206 203 165 167 185 182 191 168 171 166 150 145 158 164 169 179 179 177 180 183 181 180 183 185 185 184 187 190 192 190 189 188 180 178 178 181 181 179 177 167 156 163 163 162 161 163 173 183 186 188 186 190 194 185 162 171 162 149 143 125 128 122 104 93
106 95 68 79 242 322 268 339 272 315 344 329 191 274 256 72 152 220 263 288 332 4 339 201 202 67 291 226 256 307 238 235 244 158 191 160 179 177 196 177 160 161 155 144 143 156 162 167 174 180 179 177 180 182 180 183 186 185 185 186 193 191 188 187 182 181 179 182 183 180 176 161 158 164 167 161 159 161 165 167 173 181 180 185 186 185 173 173 163 153 150 155 139 140 129 114 98
106 258 119 285 353 304 295 264 302 335 304 251 270 271 295 124 242 170 121 323 292 336 232 207 234 139 258 324 310 282 245 226 186 179 166 200 174 136 118 186 153 128 157 142 153 157 162 168 173 174 175 176 176 180 183 183 184 184 185 185 189 189 188 184 179 182 184 187 181 176 167 159 165 167 156 154 155 157 162 162 166 178 184 182 181 172 178 166 168 161 166 159 149 143 131 119 103
7 131 82 131 312 24 256 131 224 165 269 218 246 166 336 262 166 138 184 231 273 215 272 147 186 98 260 161 286 247 226 192 180 168 88 87 96 118 63 187 167 103 162 148 152 156 168 167 170 173 179 178 177 177 180 187 184 184 183 185 184 184 187 184 180 185 189 181 171 165 159 162 164 154 150 151 151 150 147 143 159 179 186 185 181 180 181 178 175 171 171 161 152 145 133 120 109
150 75 82 61 274 111 277 204 227 105 273 221 282 132 72 301 271 133 251 176 249 289 50 263 347 201 228 194 243 233 230 157 159 107 91 87 53 73 73 54 167 191 14 203 149 171 167 170 171 177 181 185 183 181 183 182 186 184 184 184 183 184 184 181 176 180 183 178 167 159 151 148 150 155 152 153 151 148 143 141 144 168 184 185 183 186 179 184 177 179 180 159 155 147 134 117 113
52 80 31 39 290 149 261 177 60 309 255 293 298 111 47 290 300 231 242 339 279 269 284 224 220 185 241 240 244 238 125 115 105 103 97 123 88 121 103 75 113 233 223 237 195 177 175 174 178 178 187 187 186 184 187 185 185 182 183 184 183 183 182 176 170 170 170 171 163 155 143 136 136 144 147 150 150 146 146 143 143 163 182 186 181 186 181 178 181 182 182 161 155 142 116 108 112
59 95 119 271 210 247 234 216 248 220 207 275 321 209 79 360 340 293 7 307 272 284 288 275 281 249 234 251 283 86 142 133 142 136 150 161 146 169 206 224 177 205 210 222 233 198 181 185 184 185 186 191 187 185 188 187 184 183 181 182 183 182 181 176 170 165 165 160 156 153 150 146 147 148 148 147 149 152 148 147 150 158 181 184 177 184 185 173 183 182 182 162 145 123 110 84 52
118 166 113 219 194 235 195 270 310 9 307 273 288 16 78 254 46 278 316 277 276 288 268 280 284 265 282 282 278 151 144 156 163 172 166 178 189 195 203 204 211 210 226 225 228 214 202 190 187 187 190 190 188 188 189 188 183 184 183 181 181 181 179 177 173 166 163 161 162 162 158 157 156 155 152 156 155 159 155 152 156 163 176 178 173 177 177 176 181 186 184 158 139 129 115 132 123
236 134 229 241 215 252 301 305 295 303 254 313 347 313 18 272 325 290 262 273 304 263 272 290 267 276 267 277 327 165 168 178 180 183 193 205 202 202 198 203 209 212 212 206 208 209 203 202 196 192 190 187 187 191 187 187 185 182 185 184 180 181 181 180 176 171 168 166 166 165 163 162 160 159 159 155 147 152 157 154 160 166 172 167 164 159 166 176 182 188 185 151 132 127 143 164 148
265 110 197 229 229 262 267 294 307 316 25 320 304 303 333 305 265 353 277 312 270 253 235 238 269 274 272 255 269 165 195 189 202 208 217 224 223 217 208 201 200 206 208 204 204 206 205 205 202 198 193 188 190 191 188 188 184 182 187 184 182 182 182 182 178 174 173 171 169 167 168 162 160 160 158 155 155 151 149 155 159 162 151 161 152 145 140 155 153 145 129 123 144 151 151 183 150
123 206 206 208 283 282 265 278 297 302 310 339 323 336 274 291 326 255 260 256 274 246 251 231 249 264 264 271 280 261 194 205 210 208 221 224 219 222 226 237 236 218 189 185 204 205 206 203 198 201 188 193 192 191 193 187 181 188 187 186 185 188 185 184 179 178 178 176 171 170 164 164 164 157 161 161 158 156 156 162 163 155 150 161 153 147 141 129 123 129 137 146 178 175 173 188 191
244 273 240 219 218 231 274 291 274 294 294 288 304 253 313 319 279 234 253 248 263 262 253 251 247 261 269 275 278 283 267 231 210 213 217 230 237 235 225 221 211 215 198 211 198 203 202 199 201 197 198 192 197 192 193 181 191 191 187 186 186 192 186 183 188 185 182 174 173 170 167 171 171 164 164 167 164 161 163 164 164 161 161 161 164 148 151 144 142 149 150 169 190 209 210 201 191
213 245 254 255 221 236 258 283 322 310 243 265 240 319 291 297 296 169 223 255 257 271 265 255 261 271 278 282 268 262 265 263 255 220 212 216 218 223 217 217 220 210 184 213 205 200 193 201 197 191 200 195 196 195 192 190 188 187 187 185 193 190 185 191 192 192 178 176 177 175 172 171 171 172 173 171 171 163 168 166 163 163 162 167 165 157 154 153 152 155 160 176 195 226 213 179 159
210 264 241 268 317 283 322 292 290 285 272 255 304 293 267 214 244 323 269 269 273 273 274 271 263 271 280 274 271 266 265 276 272 256 237 240 226 228 228 229 221 192 209 217 210 192 201 198 191 196 197 199 193 183 193 194 180 183 181 187 195 183 190 193 192 185 184 182 181 178 173 175 176 174 176 177 160 172 165 167 167 170 166 170 161 170 163 163 164 164 172 184 195 207 197 168 140
254 255 12 290 282 287 287 308 292 283 283 266 288 268 271 249 293 271 262 269 264 272 286 279 279 269 269 271 268 259 261 261 266 277 239 232 234 212 238 224 209 188 213 211 189 206 197 191 190 195 196 199 196 183 192 184 186 182 188 190 192 181 193 190 182 186 189 180 185 186 185 175 177 178 173 168 169 174 170 168 169 171 171 170 171 174 178 166 170 169 174 185 185 191 180 179 147
278 335 319 288 271 308 290 286 288 273 263 263 238 269 271 268 141 280 247 246 267 307 288 284 282 270 259 265 278 282 268 271 264 268 304 241 213 197 233 245 200 216 208 204 203 210 196 181 196 196 197 192 187 197 197 197 184 192 187 188 185 189 183 177 186 186 187 188 184 182 183 181 174 173 170 170 176 168 170 170 178 168 173 181 179 176 171 175 169 174 178 181 181 182 181 171 157
5 2 336 325 318 310 292 286 274 288 281 233 209 248 265 283 180 246 267 272 275 294 289 289 286 280 272 282 300 307 308 280 308 351 351 10 6 6 18 5 333 323 303 239 215 195 157 192 194 195 192 185 184 199 197 202 201 203 188 178 187 192 178 178 183 185 190 190 183 178 178 179 175 175 169 171 172 170 172 176 175 177 186 178 182 176 171 174 172 175 173 173 174 170 168 167 165
292 325 315 300 317 321 282 264 268 212 253 194 172 232 296 273 223 241 251 270 307 287 285 286 282 283 328 353 326 313 333 17 42 47 38 41 34 31 34 11 8 4 320 285 292 154 193 191 185 196 185 175 185 194 197 204 198 193 188 195 188 171 183 177 178 185 186 184 181 178 178 175 177 171 176 171 173 174 172 173 178 188 183 177 181 177 166 167 165 163 172 164 160 160 157 175 163
355 351 205 319 328 314 272 272 253 260 247 144 130 250 246 254 246 256 267 281 289 299 281 277 281 306 10 6 349 27 40 47 45 44 37 30 29 28 29 11 14 18 359 346 337 224 220 158 172 163 167 173 190 192 177 181 187 178 167 178 176 163 175 177 177 177 176 175 176 177 174 173 175 171 165 172 171 174 177 180 182 189 184 178 174 168 173 172 171 167 173 162 171 166 175 177 164
291 276 87 222 324 268 275 204 291 160 276 166 152 208 265 256 271 268 269 291 274 284 281 284 294 321 14 344 41 65 49 49 46 42 38 33 29 29 27 18 17 16 11 4 358 329 28 52 107 136 155 162 166 177 171 179 162 149 145 146 155 166 166 166 157 154 163 170 165 172 172 168 169 167 170 165 176 173 178 188 191 192 180 173 173 179 170 175 168 177 166 170 169 173 176 175 171
258 3 291 308 187 274 290 298 242 234 291 351 130 279 234 246 263 278 280 287 295 299 289 288 309 343 346 11 68 61 53 41 42 37 34 34 32 34 30 23 18 17 17 10 13 18 29 23 50 84 110 126 165 165 147 150 157 145 132 137 142 142 139 151 153 152 149 145 152 160 162 162 166 165 167 166 170 181 183 191 198 181 180 173 176 173 170 176 178 173 183 165 165 183 171 183 171
294 191 255 263 193 249 343 288 338 57 109 350 172 235 316 304 262 267 274 294 307 296 289 301 354 343 10 65 68 57 47 39 39 33 27 29 31 32 30 25 19 15 20 24 21 22 23 19 29 34 31 36 57 90 93 96 118 126 123 130 141 136 140 148 148 136 130 133 139 144 148 157 167 164 169 172 170 182 189 194 191 184 175 175 176 180 183 178 170 174 181 186 173 171 178 174 178
283 218 221 209 233 270 248 301 343 108 109 217 272 257 230 253 294 287 292 291 289 282 290 314 343 23 71 72 66 57 51 45 37 25 23 26 31 31 29 26 19 16 22 27 30 34 32 17 25 32 24 34 33 49 67 69 66 74 69 77 85 103 127 140 136 134 138 140 141 152 159 161 170 172 168 170 177 184 188 190 183 181 175 179 182 182 195 174 173 166 178 194 180 163 179 177 182
229 256 256 288 255 220 233 285 258 329 190 250 277 242 262 268 277 280 272 276 273 273 299 300 327 71 78 76 69 63 57 52 37 30 28 28 34 30 30 23 22 20 22 26 32 32 33 27 19 19 22 17 25 31 42 52 49 50 53 46 47 42 49 63 95 127 144 140 142 154 164 165 175 175 171 166 175 180 185 185 181 186 179 182 179 186 189 181 176 180 176 190 202 192 178 183 173
230 228 238 242 257 268 261 249 277 231 295 303 278 274 287 292 277 277 282 259 254 284 292 318 63 92 81 78 69 63 61 57 42 39 36 37 35 33 28 24 27 26 26 26 30 30 28 26 25 23 14 9 17 28 30 33 43 40 41 16 37 20 24 41 25 54 74 113 132 152 169 175 180 180 181 175 180 181 182 189 191 185 187 176 183 187 194 187 190 187 195 181 187 207 195 165 145
239 257 266 254 252 279 272 263 264 305 329 236 257 275 292 285 285 288 277 302 319 307 352 75 100 90 85 77 73 69 61 57 44 47 44 41 36 32 30 28 27 34 31 27 32 29 30 29 28 22 13 21 20 8 19 33 30 12 31 51 55 3 45 18 26 12 39 45 136 144 168 186 184 187 191 179 192 186 194 189 186 192 186 188 194 202 194 199 202 196 190 187 176 180 198 178 171
228 238 246 265 229 255 238 270 270 329 239 285 312 360 312 293 299 288 289 318 312 334 93 108 95 89 81 79 76 66 72 66 47 44 38 40 35 30 30 31 25 32 24 26 30 28 27 28 30 23 16 18 21 14 9 33 15 46 87 24 49 27 21 22 349 336 312 49 121 149 178 182 183 195 200 198 198 193 197 193 193 196 186 197 205 199 195 200 195 196 172 195 216 186 195 183 176
266 250 233 280 259 254 280 275 300 334 36 270 305 322 288 284 278 275 291 318 23 34 93 97 105 94 85 80 78 76 64 55 49 47 40 38 37 33 33 33 34 33 28 28 23 27 24 25 24 24 23 21 14 14 18 9 4 26 66 43 45 40 47 58 54 357 2 4 355 6 145 157 179 207 211 207 205 208 206 200 204 198 193 192 193 201 195 201 201 197 188 193 201 235 202 197 183
249 277 284 263 250 343 300 295 348 327 169 266 287 297 289 282 270 275 328 58 73 70 78 74 67 83 84 78 79 79 73 62 56 46 43 38 41 41 38 34 30 31 31 28 24 24 25 22 17 19 22 23 19 11 11 9 28 33 54 86 62 78 73 8 23 18 14 14 334 5 34 134 183 209 218 218 227 225 216 214 212 198 205 194 195 197 196 206 200 200 199 212 184 195 209 209 206
271 204 233 251 277 234 194 262 326 307 319 111 14 322 307 255 262 315 59 86 84 71 84 79 74 80 89 88 73 65 74 71 67 57 46 38 38 38 39 36 32 36 32 31 26 26 27 23 17 15 17 19 18 15 10 7 19 26 21 24 31 25 16 18 17 357 352 342 331 325 284 162 178 208 221 228 227 233 232 232 221 215 207 205 199 203 203 206 202 201 201 204 196 198 212 207 214
293 230 200 222 217 257 270 324 43 14 328 327 67 355 301 266 253 260 124 69 71 48 77 77 79 83 80 76 78 75 69 59 63 62 56 51 49 42 38 36 36 33 29 23 26 30 29 26 22 19 19 17 15 16 13 13 20 32 34 41 42 43 35 26 20 349 341 335 299 308 337 313 168 221 235 239 240 246 246 240 234 221 223 216 208 213 212 208 211 209 208 204 209 217 207 196 211
30 271 198 212 212 197 145 6 55 352 183 270 85 184 271 305 277 269 113 95 81 63 65 78 78 74 75 78 77 77 80 72 60 54 48 49 42 48 43 41 38 38 29 21 24 27 30 31 27 26 23 17 13 16 19 17 15 15 33 55 70 73 59 20 348 6 13 339 318 300 295 320 244 203 258 251 257 249 249 251 239 231 227 226 223 221 222 217 215 214 207 208 215 215 194 203 208
237 244 117 102 110 116 174 136 168 238 259 303 324 170 248 281 273 246 103 99 103 85 79 77 74 77 69 72 72 71 71 78 81 67 49 42 41 40 41 40 40 39 32 33 32 27 27 28 31 29 27 22 17 17 23 25 23 11 13 20 34 39 46 28 5 352 7 10 15 355 320 295 286 229 230 244 241 250 252 263 253 246 240 232 214 220 225 227 230 233 219 220 219 214 212 216 213
215 220 121 115 129 168 158 205 220 230 337 293 266 198 289 252 254 64 129 107 131 117 115 104 103 94 93 82 66 56 51 63 75 79 71 56 45 38 35 38 35 38 35 35 33 31 30 28 32 35 35 29 21 22 24 22 24 16 16 13 19 16 20 20 5 16 15 7 19 2 4 329 310 293 259 247 245 236 239 245 259 265 255 250 217 230 237 235 228 225 224 223 220 224 219 223 214
263 184 100 84 89 121 179 160 116 317 208 262 235 195 214 283 269 53 153 122 162 158 137 129 109 99 94 96 91 82 63 43 41 60 67 64 53 43 34 44 41 37 33 35 34 31 30 28 29 33 33 31 26 27 25 25 23 20 23 18 20 14 14 13 22 17 12 9 11 6 1 1 346 325 305 286 270 253 244 238 242 246 252 257 247 234 243 245 244 240 232 227 225 226 222 218 223
114 72 66 1 22 342 34 88 113 55 283 245 217 204 177 279 283 165 151 209 164 135 124 117 108 100 84 69 75 70 74 71 61 52 46 54 56 53 32 43 37 34 33 36 34 33 32 30 26 35 31 30 28 26 25 26 24 25 26 21 23 20 15 21 23 20 13 12 9 359 360 346 355 352 333 313 304 292 280 259 241 242 242 248 256 259 244 237 241 239 238 236 234 229 227 227 231
117 87 115 27 333 13 38 345 42 130 265 261 240 204 186 190 284 312 300 280 157 153 151 147 135 123 116 108 94 83 64 61 63 56 44 38 39 35 31 31 27 24 26 25 23 24 26 25 26 30 25 22 22 23 23 23 23 25 28 27 28 25 25 27 27 23 14 10 6 0 354 358 356 350 2 353 335 323 306 289 269 265 257 249 249 242 247 244 248 250 250 242 242 238 238 233 233
81 74 54 120 269 34 315 36 310 204 213 243 317 138 88 245 232 351 356 30 103 102 132 138 134 134 123 109 99 81 74 65 56 52 46 40 43 36 32 27 27 26 23 21 22 20 21 24 25 31 25 15 15 18 25 20 24 23 23 26 28 26 30 33 33 31 19 16 8 5 4 2 354 359 353 351 349 339 325 305 288 264 257 248 247 254 256 255 252 251 250 251 247 242 236 233 234
115 157 151 113 171 183 238 260 216 309 296 260 202 20 232 235 32 30 37 27 79 101 107 115 129 131 131 122 100 76 61 61 61 59 53 51 47 45 39 35 34 30 26 25 25 28 24 25 20 32 27 19 17 21 21 21 23 22 23 28 26 23 27 30 31 31 22 22 16 11 7 1 357 354 346 349 337 339 344 331 304 282 263 263 257 253 258 261 258 252 251 253 251 247 245 241 241
201 140 155 187 148 153 235 206 221 222 221 281 275 35 232 175 246 23 50 37 79 90 104 109 107 114 118 115 93 82 71 62 63 62 61 57 51 49 45 36 35 32 29 27 26 22 20 19 17 26 28 21 21 19 18 26 23 25 28 30 31 26 26 30 31 30 27 22 14 12 7 2 2 349 347 337 342 346 342 341 343 321 293 280 273 272 270 272 267 263 257 254 258 253 250 246 249
229 170 100 81 235 152 195 204 159 233 319 306 286 196 192 118 72 84 63 69 73 84 93 106 105 105 110 93 100 104 96 89 83 82 70 58 56 48 41 34 23 24 28 34 33 26 20 7 16 26 28 14 14 16 19 22 19 23 32 34 30 31 31 30 29 25 25 28 19 18 6 4 357 349 347 347 344 345 340 339 340 343 333 320 309 292 284 279 276 274 271 267 264 259 256 253 250
247 106 200 211 187 111 346 341 214 100 23 250 158 298 73 127 99 84 90 88 86 101 113 116 127 120 106 126 134 128 132 120 118 116 107 85 56 49 56 43 26 24 29 30 35 25 30 25 29 27 22 21 19 13 14 18 19 25 23 23 23 25 25 28 27 22 18 13 17 13 12 0 356 1 351 351 346 344 341 340 335 335 338 334 325 315 303 293 285 278 272 270 269 265 258 257 256
85 135 241 249 84 119 127 206 314 231 231 265 194 207 266 136 279 139 179 124 169 157 160 147 137 132 137 163 165 161 154 148 128 107 96 87 79 56 31 30 32 31 25 17 21 24 27 38 32 30 21 17 4 8 10 12 12 15 10 11 13 21 21 18 18 15 8 13 11 12 3 5 1 350 351 342 347 345 343 342 338 332 329 329 325 316 311 301 298 288 273 267 260 267 271 271 261
160 187 249 120 276 314 312 93 265 266 244 273 284 244 232 199 206 148 204 177 183 179 171 148 152 176 179 177 173 168 144 111 98 85 69 53 51 34 31 28 5 18 17 16 7 26 26 30 33 41 26 7 359 0 4 5 17 9 0 358 6 7 12 14 7 6 4 7 4 0 2 352 349 351 349 351 347 345 342 337 337 332 329 327 324 320 316 312 303 295 287 278 275 268 265 268 267
29 51 19 297 103 163 211 196 187 166 259 244 288 250 257 215 195 180 180 186 173 172 167 185 188 187 185 176 173 165 145 132 129 128 138 141 118 42 39 26 14 1 359 346 8 8 22 28 35 24 13 4 0 4 2 1 353 2 355 0 2 9 2 1 354 354 357 354 344 346 345 350 347 343 344 343 340 338 338 336 333 331 327 327 327 323 322 315 312 296 288 286 277 274 271 266 271
13 123 268 45 252 225 142 307 184 180 209 219 256 268 271 254 202 163 179 179 174 163 175 188 197 194 187 181 169 164 155 149 154 159 156 131 106 13 337 316 328 329 324 336 349 339 324 353 350 351 15 331 343 333 342 339 344 343 352 350 342 347 343 340 331 316 301 306 306 316 317 313 326 328 330 330 332 329 325 324 322 324 326 325 327 324 324 322 316 306 297 283 282 276 270 269 265
140 155 201 174 147 271 251 257 108 136 219 242 238 254 273 269 11 183 163 162 153 175 171 183 196 178 170 166 164 153 150 161 161 170 154 179 224 250 268 296 316 346 314 318 314 326 323 304 282 283 300 298 279 302 304 313 323 320 323 315 312 312 312 322 329 328 312 306 286 276 266 280 282 278 280 292 295 298 298 300 308 312 319 322 323 324 322 322 315 313 304 293 287 280 274 271 265